Tracking 29892 objects as of 21-Nov-2024
HD Live streaming from Space Station
objects crossing your sky now

DELTA 2 R/B(2)

Track DELTA 2 R/B(2) now!


NORAD ID: 23641
Int'l Code: 1995-041C
Perigee: 1,376.9 km
Apogee: 29,407.3 km
Inclination: 20.5 °
Period: 532.5 minutes
Semi major axis: 21763 km
RCS: 3.3002 m2 (large)
Launch date: August 5, 1995
Source: United States (US)
Launch site: AIR FORCE EASTERN TEST RANGE (AFETR)

Note: This is a ROCKET BODY
Your satellite tracking list
Your tracking list is empty




NASA's NSSDC Master Catalog

Two Line Element Set (TLE):
1 23641U 95041C   24325.74892514 -.00000060  00000-0  00000-0 0  9998
2 23641  20.4708 265.0249 6439900   8.3479 181.6661  2.70410116289537
Source of the keplerian elements: AFSPC